星链-34404 (STARLINK-34404)

导读 | 豆包AI

STARLINK-34404是美国SpaceX公司星链(Starlink)星座的卫星,于2025年6月18日发射。星链项目旨在通过近地轨道卫星星座,为全球尤其是偏远、网络欠发达地区提供低延迟、高速宽带互联网服务。 作为星链大规模组网的一员,该卫星运行在近地轨道,依托SpaceX的部署推进,延续星链星座架构,助力全球卫星互联网覆盖能力提升,不过其部署也引发了太空环保、轨道资源等领域的相关讨论。

基本信息
目录编号:
64442
目录名称:
STARLINK-34404
国际标识:
2025-130E
轨道中心:
EARTH
卫星名称:
星链-34404
卫星全名:
星链-34404 (STARLINK-34404)
卫星状态:
在轨 (已飞行269 天)
发射日期:
2025-06-18 UTC
国别 :
美国 (US)
星等 :
--
轨道信息
数据来源 国际轨道数据 AOE轨道数据
星历时间 2026-03-14T14:22:13+0800
10小时前
查看轨道信息
2026-03-11T06:00:00+0800
3天前
查看轨道信息
半长轴 6853.426km 6853.38km
偏心率 0.0001215 0.0001278
轨道倾角 53.159° 53.161°
近地点辐角 88.805° 85.915°
升交点赤经 67.286° 82.841°
平近点角 271.309° 176.573°
近地点 474.456km 474.367km
远地点 476.122km 476.119km
周期 94.107分钟 94.106分钟
每日圈数 15.301753 15.301907
详细信息
固有亮度:
5
最大亮度:
2.5
卫星平台:
Starlink V1.0
覆盖范围:
全球
运营商:
太空探索技术公司
运营商所在国:
美国
制造商(研发单位):
太空探索技术公司
制造商所在国:
美国
使用方式:
暂无
卫星简介
Starlink 计划是 SpaceX 推出的全球卫星互联网项目,通过发射低轨道卫星,为全球尤其是偏远地区提供高速、低延迟的互联网服务。自 2019 年起,Starlink 已部署数千颗卫星,旨在缩小全球数字鸿沟,推动互联网普及。该项目还为军事、航空等行业提供通信支持,带来广泛经济效益。
2D轨道图
3D轨道图
轨道高度分析图
轨道倾角分析图
轨道综合分析图
查看轨道综合分析图